2 August 2015 Space
GT Aviation logo and link to the homepage
GT Aviation logo and link to the homepage Space
Space

GT Aviation UK - Airfield Weather Information

 

Weather information for EGHH


175 minutes ago, at 23:20 UTC, the wind was blowing at a speed of 0.5 meters per second (1.2 miles per hour) from South/Southwest in EGHH. The temperature was 12 degrees Celsius (54 degrees Fahrenheit), and the pressure was 1,018 hPa (30.06 inHg). The relative humidity was 87.6%. There are no clouds below 1,524 meter (5,000 feet). The visibility was >10 kilometers (>6.2 miles).

The METAR this information has been retrieved from is: EGHH 012320Z 21001KT CAVOK 12/10 Q1018

Search again?
Enter ICAO code: and show the report in
Don't know the ICAO code of the airport you want weather for?

To see a graphical view of the weather for EGHH, click here to visit SkyLinkWeather

 



GT Aviation UK
PO Box 15, WEYMOUTH DT4 8DS, UK
Email jane@gtaviation.co.uk Web www.gtaviation.co.uk

Use of this website constitutes acceptance of our User Agreement

TYNT INSIGHT technology is in use on this website to monitor text and pictures being copied from it. A record is kept only of the content copied.